Погода Зея

Погода Зея : погода сейчас, прогноз погоды и архив. Всё, что Вы хотите узнать о погоде Зея!

Хотите узнать прогноз погоды Зея? Тогда Вам сюда: Погода Зея

Поиск расширенной информации на нашем сайте:

Другие новости

Новости СМИ2

Главная страница сайта

Новости сайта

02.10.2013

Напоминаем, что на нашем новом сайте вы можете получить высокодетализированные прогнозы погоды по пунктам России, СНГ и мира (включающие важные для авиации метеовеличины, такие как направление и скорость ветра, видимость, явления погоды, количество и форма облачности, нижняя и верхняя граница облачности), а также ознакомиться с разнообразными материалами по авиационной метеорологии и подборкой полезных ссылок на эту тему.

Сайт Метеоцентр.Азия посвящён разработке технологий оптимизации авиаметеорологического обслуживания, включая проектирование и перспективное создание нескольких автоматизированных авиаметеорологических систем:
- система выпуска высокодетальных прогностических карт явлений погоды для нижнего воздушного пространства по России и ближнему зарубежью;
- система верификации прогнозов TAF (выпускаемых синоптиками официальных АМСГ РФ и ближнего зарубежья) и AUTOTAF (выпускаемых сайтом Метеоцентр.Азия) - выявление ошибок, онлайн-сопоставление с фактической погодой METAR, автоматическое внесение коррективов в прогнозы при резком отклонении фактической погоды от прогноза, подсчёт оправдываемости прогнозов по элементам и в целом;
- система обработки, анализа и отображения авиаметеорологической информации для применения провайдерами метеорологической информации.

Рекомендуем: MegaStroyka - строительство онлайн

Погода Зея - сегодня

Время (UTC), дата Ветер
(°,м/с) 
Видим.   Явления Облачность Т
(°С)
Тd
(°С)
f(%) Тe
(°С)
Pmin
(гПа)
dP
(гПа)
Po
(мм)
O2
(г/м3)
Тmin Tmax R s Состояние
почвы
00 25.03.17 150 (ЮВ) 20000 м    3/0 верхняя 
[Ci sp]
-1.7 -11.4 47 -1  1020.7  0.6  744  303  -8.7         
03 25.03.17 090 (В) 20000 м    1/0 верхняя 
[Ci sp]
+4.5 -12.4 28 +4  1019.6  -0.4  743  296           
06 25.03.17 060 (СВ) 20000 м    3/3 600 м 
[Cu hum]
+5.3 -13 25 +5  1018.7  -0.8  743  295           
09 25.03.17 050 (СВ) 20000 м    1/1 600 м 
[Cu hum]
+3.1 -13.9 27 +4  1019.2  0.2  743  297           
12 25.03.17 тихо ()   20000 м    ясно 
-3.1 -10.4 57 -3  1020.8  744  304    +5.9       
15 25.03.17 тихо ()   20000 м    ясно 
-6 -9.8 74 -6  1021.2  744  307           
18 25.03.17 тихо ()   20000 м    ясно 
-7.6 -9.9 84 -8  1021.3  -0.1  743  309           
21 25.03.17 260 (З) 20000 м    ясно 
-6.4 -9.6 78 -6  1021.4  0.3  744  308           
00 26.03.17 210 (ЮЗ) 20000 м    ясно 
+0.3 -9.7 47 +1  1021.3  0.6  744  300  -8.2         
03 26.03.17 080 (В) 20000 м    1/1 600 м 
[Cu hum]
+5.6 -11 29 +6  1020.7  744  295           
06 26.03.17 100 (В) 20000 м    3/3 600 м 
[Cu hum]
+6.6 -11.8 25 +6  1018.8  -1.8  743  293           
09 26.03.17 050 (СВ) 20000 м    1/1 600 м 
[Sc diur, vesp]
+4.1 -13 27 +5  1018.7  -0.3  743  296           
12 26.03.17 тихо ()   20000 м    ясно 
-2.3 -9 60 -2  1020.1  0.7  743  303    +6.8       
15 26.03.17 тихо ()   10 км  дым  5/0 средняя 
[Ac trans]
-3.8 -8.9 68 -4  1020.2  0.1  743  304           
18 26.03.17 тихо ()   10 км  дым  6/0 средняя, верхняя 
[Ac trans|Ci sp]
-6.4 -9.7 77 -6  1019.9  -0.6  743  307           
21 26.03.17 тихо ()   20000 м    8/0 средняя, верхняя 
[Ac trans|Ci sp]
-6.6 -10.3 75 -7  1019.3  -0.6  742  307           
00 27.03.17 тихо ()   20000 м    1/0 средняя 
[Ac trans]
-1.4 -8.7 58 -1  1018.7  742  301  -7.2         
03 27.03.17 190 (Ю) 20000 м    3/0 
[Cu hum]
+5.6 -13.8 23 +6  1016.4  -1.5  741  294           
06 27.03.17 230 (ЮЗ) 20000 м    4/0 
[Cu hum]
+6.8 -14.6 20 +8  1014.1  -2.2  739  292           
09 27.03.17 210 (ЮЗ) 20000 м    3/3 600 м 
[Cu hum]
+5 -12.5 27 +6  1013.3  -0.9  739  293           
12 27.03.17 тихо ()   20000 м    1/0 средняя 
[Ac trans]
-2.2 -9.4 58 -2  1014.4  0.3  739  301    +7.6       
15 27.03.17 тихо ()   20000 м    ясно 
-5.2 -9.3 73 -5  1014.4  -0.3  739  304           
18 27.03.17 тихо ()   20000 м    10/0 средняя, верхняя 
[Ac trans|Ci sp]
-4.3 -8.7 71 -4  1013.7  -0.6  738  303           
21 27.03.17 тихо ()   20000 м    10/0 средняя, верхняя 
[Ac trans|Ci sp]
-5.4 -8.6 78 -5  1013.5  -0.3  738  304           
00 28.03.17 160 (Ю) 20000 м    6/0 средняя 
[Ac lent]
+0.9 -8.4 50 +2  1013.2  0.4  738  297  -5.9         
Время (UTC), дата Ветер
(°,м/с) 
Видим.   Явления Облачность Т
(°С)
Тd
(°С)
f(%) Тe
(°С)
Pmin
(гПа)
dP
(гПа)
Po
(мм)
O2
(г/м3)
Тmin Tmax R s Состояние
почвы

Для получения пояснительной информации подведите курсор к названию столбца.

ПОГОДА Зея - архив

Всё, что Вы хотите узнать о погоде Зея - удобно и подробно!

Выберите нужную дату (начиная с 1 января 2015* года) и нажмите кнопку "Найти".
Будут отображены архивные сводки погоды по пункту Зея, начиная с указанной даты.


Отображать данные в формате CSV (для использования в таблицах Excel)


Внимание! Наш архив погоды предназначен исключительно для личного некоммерческого использования в познавательных целях. Если Вам необходимы официальные справки о состоянии погоды (для производственных, юридических, коммерческих и т.п. целей), обращайтесь в органы Росгидромета.

*Примечание: данная дата относится к архиву по метеостанциям СССР (Россия, СНГ, Балтия).
Архив по метеостанциям Зарубежной Европы и Азии (кроме Китая) хранится 10 дней, по другим регионам земного шара (Китай, Африка, Америка, Австралия, Океания) - 1 день.

Зея - район местоположения метеостанции


Название, широта, долгота, высота метеостанции:
Зея 53.7°ш. 127.3°д. 229 м над ур. моря [Российская Федерация]

Дополнительная информация

В oтличие oт бoльшинства пoгoдных сайтoв мы публикуем пoдрoбную метеoинфoрмацию в детальнoм прoфессиoнальнoм фoрмате.

Характеристики температуры и влажнoсти вoздуха измеряются на высoте 2 м в тени вдали oт зданий и деревьев.
Скoрoсть ветра измеряется на высoте 10 м (на урoвне рoста челoвека скoрoсть ветра ниже в 1.5-2 раза). Если метеoстанция нахoдится в гoрoде или в лесу, тo скoрoсть ветра занижена на 2-4 м/с пo сравнению с oткрытым местoм. Скoрoсть ветра над акватoриями крупных рек и oзёр, а также на вершинах хoлмoв на 2-5 м/с выше, чем в oбычных услoвиях.
Атмoсфернoе давление в разных тoчках местнoсти мoжет значительнo oтличаться oт давления на метеoстанции, в зависимoсти oт услoвий рельефа (при пoдъёме на 10 м давление пoнижается примернo на 1 мм рт.ст.).